Location: Lombard
(41.8800°N, 88.0080°W)
Time: 12:36:01
(UTC-05:00)

AO-92 - Visible Passes

Search period start: 17 May 2022 00:00
Search period end: 27 May 2022 00:00
Orbit: 473 x 486 km, 97.4° (Epoch: 17 May)

Date Brightness Start Highest point End Pass type
(mag) Time Alt. Az. Time Alt. Az. Time Alt. Az.
17 May ? 22:10:40 22° ENE 22:10:44 23° ENE 22:13:33 10° NNE visible
17 May ? 23:44:55 19° WNW 23:44:55 19° WNW 23:46:45 10° NW visible
18 May ? 21:44:25 11° ENE 21:45:01 12° ENE 21:46:17 10° NE visible
18 May ? 23:18:40 39° WNW 23:18:40 39° WNW 23:21:22 10° NNW visible
19 May ? 22:52:23 65° NNE 22:52:23 65° NNE 22:55:31 10° N visible
20 May ? 22:26:05 34° ENE 22:26:05 34° ENE 22:29:18 10° N visible
21 May ? 00:00:20 13° WNW 00:00:20 13° WNW 00:01:25 10° WNW visible
21 May ? 21:59:46 17° ENE 22:00:13 17° ENE 22:02:36 10° NNE visible
21 May ? 23:34:00 26° WNW 23:34:00 26° WNW 23:36:27 10° NW visible
22 May ? 23:07:39 57° WNW 23:07:39 57° WNW 23:10:46 10° NNW visible
23 May ? 22:41:17 54° ENE 22:41:17 54° ENE 22:44:40 10° N visible
24 May ? 22:14:53 25° E 22:15:13 25° ENE 22:18:11 10° NNE visible
24 May ? 23:49:07 18° W 23:49:07 18° W 23:51:06 10° NW visible
25 May ? 21:48:28 12° E 21:49:19 13° ENE 21:50:58 10° NE visible
25 May ? 23:22:42 37° W 23:22:42 37° W 23:25:39 10° NNW visible
26 May ? 22:56:15 83° N 22:56:15 83° N 22:59:40 10° NNW visible
